This is the latest recevied weather packets stored in our database for station/object TA7O-10. If no packets are shown the sender has not sent any weather packets the latest 10 day(s).
| Time | Temp. | Humidity | Pressure | Rain* | Wind** | Luminosity | Snow |
|---|---|---|---|---|---|---|---|
| 1788516115 | 30° C | 45% | 1002.3 hPa | - | - | - | - |
| 1788515215 | 30° C | 45% | 1002.3 hPa | - | - | - | - |
| 1788514315 | 30° C | 45% | 1002.2 hPa | - | - | - | - |
| 1788513415 | 30° C | 45% | 1002.2 hPa | - | - | - | - |
| 1788512515 | 30° C | 45% | 1002.1 hPa | - | - | - | - |
| 1788511615 | 26.11° C | 45% | 996.1 hPa | - | - | - | - |
| 1788510715 | 30° C | 45% | 1002.1 hPa | - | - | - | - |
| 1788509814 | 26.67° C | 45% | 997 hPa | - | - | - | - |
| 1788508914 | 30° C | 45% | 1002.1 hPa | - | - | - | - |
| 1788508015 | 30° C | 45% | 1002.1 hPa | - | - | - | - |
| 1788507114 | 30° C | 45% | 1002.1 hPa | - | - | - | - |
| 1788506214 | 28.33° C | 45% | 999.3 hPa | - | - | - | - |
| 1788505314 | 30° C | 45% | 1002.2 hPa | - | - | - | - |
| 1788504414 | 30° C | 44% | 1002.1 hPa | - | - | - | - |
| 1788503514 | 30° C | 45% | 1001.9 hPa | - | - | - | - |
| 1788502614 | 30° C | 44% | 1001.8 hPa | - | - | - | - |
| 1788501737 | 27.78° C | 44% | 998.1 hPa | - | - | - | - |
| 1788500813 | 30° C | 44% | 1001.7 hPa | - | - | - | - |
| 1788499913 | 30° C | 44% | 1001.7 hPa | - | - | - | - |
| 1788499013 | 30° C | 44% | 1001.7 hPa | - | - | - | - |
| 1788498113 | 30° C | 44% | 1001.7 hPa | - | - | - | - |
| 1788497214 | 30° C | 44% | 1001.7 hPa | - | - | - | - |
| 1788496313 | 30° C | 44% | 1001.8 hPa | - | - | - | - |
| 1788495413 | 30° C | 44% | 1001.8 hPa | - | - | - | - |
| 1788493613 | 28.89° C | 44% | 1000.1 hPa | - | - | - | - |
* Rain since midnight (hover to see other rain measurements)
** Current wind speed in m/s (hover to see current wind gust speed)